www.pogodaiklimat.ru

Погода и климат >> Архив погоды >> Хорватия >> Бьеловар


ПОГОДА в Бьеловаре

  • Прогноз погоды в Бьеловаре
  • Монитор погоды в Бьеловаре

АРХИВ ПОГОДЫ в Бьеловаре

Время (UTC), дата Ветер
(напр.,м/с)
 
Видим.   Явления Облачность Т
(С)
Тd
(С)
f
(%)
Тe
(С)
Тes
(С)
Комфортность P
(гПа)
Po
(гПа)
Тmin
(С)
Tmax
(С)
R
(мм)
R24
(мм)
S
(см)
13 11.09 СЗ 2 10 км 3/0
[Ac trans Ci fib]
+23.3 +12.5 51 +26 +34 жарко 1022.5 1006.0
14 11.09 СВ 2 н/о н/о +23.8 +11.9 47 +25 +25 комфорт 1021.9 1005.4
15 11.09 С 2 н/о н/о +24.1 +12.2 47 +26 +26 жарко 1022.0 1005.5
16 11.09 С 2 н/о н/о +23.4 +12.1 49 +26 +26 жарко 1022.6 1006.0
17 11.09 СЗ 2 н/о н/о +20.9 +12.9 60 +24 +24 комфорт 1022.8 1006.1
18 11.09 С 1 10 км 3/0
[Ac trans Ci fib]
+18.9 +13.3 70 +21 +21 комфорт 1023.1 1006.3 +24.3
19 11.09 С 1 10 км 1/0
[Ci fib]
+17.7 +13.6 77 +19 +19 1023.8 1006.9
20 11.09 СЗ 1 10 км 3/0
[Ac trans]
+16.5 +13.5 82 +17 +17 1024.4 1007.5
21 11.09 СЗ 1 н/о н/о +15.9 +13.1 83 +17 +17 1024.7 1007.7
00 12.09 штиль 0 н/о н/о +16.1 +13.3 83 +16 +16 1025.2 1008.2
03 12.09 н/о н/о +17.4 +12.6 73 1025.7 1008.7
04 12.09 С 1 н/о н/о +17.1 +12.5 74 +18 +18 1026.1 1009.1
05 12.09 С 1 н/о н/о +17.1 +12.7 75 +18 +18 1026.8 1009.8
06 12.09 С 1 10 км 10/0
[Ac As]
+18.0 +13.0 73 +19 +20 1027.6 1010.7 +15.8
07 12.09 СВ 2 10 км слаб. дождь 10/0
[Ac As]
+17.7 +13.0 74 +18 +19 1028.7 1011.8
08 12.09 СВ 1 10 км 9/9 1000 м
[Sc]
+18.3 +13.3 73 +20 +21 1029.4 1012.5
09 12.09 С 2 10 км 9/5 1000 м
[Sc Ac As]
+20.3 +13.2 64 +23 +25 комфорт 1029.6 1012.8
10 12.09 С 2 10 км 9/9 1000 м
[Sc]
+20.6 +13.2 63 +24 +25 комфорт 1030.1 1013.3
11 12.09 СВ 2 10 км 9/9 1000 м
[Sc]
+21.1 +13.8 63 +24 +25 комфорт 1030.2 1013.4
12 12.09 СВ 2 10 км 8/3 1000 м
[Cu hum Ac trans]
+23.6 +14.2 56 +26 +30 жарко 1029.5 1012.9 0.0
13 12.09 СВ 2 10 км 8/3 1000 м
[Cu hum Ac trans]
+24.2 +14.4 54 +27 +30 жарко 1029.3 1012.7
14 12.09 н/о н/о +24.8 +14.0 51 1028.9 1012.3
15 12.09 С 1 н/о н/о +25.0 +12.6 46 +27 +27 жарко 1028.9 1012.3
16 12.09 С 2 н/о н/о +24.5 +12.5 47 +26 +26 жарко 1028.7 1012.1
17 12.09 С 1 н/о н/о +22.3 +13.4 57 +25 +25 комфорт 1029.2 1012.5
18 12.09 С 1 10 км ясно +19.9 +14.1 69 +23 +23 комфорт 1029.6 1012.8 +25.0 0.0
19 12.09 СВ 1 10 км ясно +17.9 +14.3 79 +19 +19 1030.1 1013.2
20 12.09 В 1 10 км ясно +16.4 +14.2 87 +17 +17 1030.5 1013.5
21 12.09 штиль 0 н/о н/о +15.3 +13.4 88 +15 +15 1030.9 1013.7
00 13.09 штиль 0 н/о н/о +13.4 +11.9 91 +13 +13 1031.3 1014.0
03 13.09 штиль 0 н/о н/о +12.4 +11.2 92 +12 +12 1031.2 1013.9
04 13.09 штиль 0 н/о н/о +11.5 +10.5 94 +11 +11 1031.8 1014.4
05 13.09 ЮВ 1 н/о н/о +11.9 +10.9 94 +12 +12 1031.9 1014.5
06 13.09 СЗ 1 5000 м дымка ясно +13.5 +11.9 90 +14 +15 1031.8 1014.6 +11.6
07 13.09 СЗ 1 10 км ясно +16.8 +12.9 78 +18 +22 1031.8 1014.8
08 13.09 ЮЗ 1 10 км ясно +19.8 +13.8 68 +23 +30 комфорт 1031.8 1014.9
09 13.09 ЮЗ 1 10 км ясно +22.1 +14.2 61 +25 +36 комфорт 1031.4 1014.7
10 13.09 СЗ 1 10 км 1/1 1000 м
[Cu hum]
+24.1 +14.6 55 +27 +38 жарко 1030.9 1014.3
11 13.09 СЗ 1 10 км 3/3 1000 м
[Cu hum]
+25.1 +14.3 51 +28 +37 жарко 1030.4 1013.9
12 13.09 С 2 10 км 3/3 1000 м
[Cu hum]
+25.3 +12.8 46 +27 +35 жарко 1029.9 1013.4
13 13.09 СЗ 1 10 км 4/4 1000 м
[Cu hum]
+26.1 +11.9 41 +27 +33 жарко 1029.2 1012.7
14 13.09 С 2 н/о н/о +26.3 +10.5 37 +27 +27 жарко 1028.8 1012.3
15 13.09 СЗ 2 н/о н/о +25.5 +11.3 41 +27 +27 жарко 1028.7 1012.1
16 13.09 СВ 1 н/о н/о +25.1 +12.7 46 +27 +27 жарко 1028.6 1012.0
17 13.09 штиль 0 н/о н/о +22.9 +13.7 56 +26 +26 жарко 1028.8 1012.1
18 13.09 СВ 1 10 км 1/0
[Ci fib]
+20.9 +14.5 67 +25 +25 комфорт 1029.3 1012.5 +26.4
19 13.09 В 1 10 км ясно +19.1 +14.9 77 +22 +22 комфорт 1029.7 1012.8
20 13.09 ЮВ 1 10 км ясно +17.5 +15.1 86 +19 +19 1030.0 1013.0
21 13.09 СВ 1 н/о н/о +16.2 +14.3 89 +17 +17 1030.3 1013.2
00 14.09 штиль 0 н/о н/о +15.5 +13.6 88 +15 +15 1029.8 1012.7
03 14.09 штиль 0 н/о н/о +15.7 +13.8 88 +15 +15 1029.5 1012.4
04 14.09 штиль 0 н/о н/о +15.7 +14.1 90 +15 +15 1029.7 1012.6
05 14.09 штиль 0 н/о н/о +16.1 +14.2 88 +16 +16 1030.0 1012.9
06 14.09 СЗ 1 10 км 9/9 1000 м
[Sc]
+17.0 +14.5 85 +18 +18 1030.3 1013.3 +15.2
07 14.09 СЗ 1 10 км 10/10 1000 м
[Sc]
+17.9 +15.1 84 +19 +19 1030.3 1013.4
08 14.09 СЗ 2 10 км 10/10 1000 м
[Sc]
+19.3 +15.6 79 +22 +22 комфорт 1030.4 1013.5
09 14.09 С 2 10 км 9/9 1000 м
[Sc]
+21.1 +14.9 68 +24 +25 комфорт 1030.4 1013.6
10 14.09 С 2 10 км 6/0
[Ac trans Ci fib]
+22.6 +14.8 61 +26 +35 жарко 1030.2 1013.5
11 14.09 СВ 2 10 км 6/1 1000 м
[Cu hum Ac trans Ci fib]
+24.2 +15.1 57 +27 +34 жарко 1029.9 1013.3
12 14.09 С 3 10 км 5/3 1000 м
[Cu hum Ci fib]
+24.9 +14.7 53 +28 +33 жарко 1029.1 1012.6
13 14.09 С 2 10 км 5/3 1000 м
[Cu hum Ci fib]
+26.0 +13.8 47 +28 +34 жарко 1028.6 1012.1
14 14.09 С 2 н/о н/о +26.0 +12.5 43 +28 +28 жарко 1028.0 1011.5
15 14.09 С 2 н/о н/о +25.4 +12.0 43 +27 +27 жарко 1027.7 1011.2
16 14.09 С 2 н/о н/о +24.4 +12.7 48 +26 +26 жарко 1027.6 1011.0
17 14.09 С 1 н/о н/о +21.8 +14.0 61 +25 +25 комфорт 1028.2 1011.4
18 14.09 С 1 10 км 4/0
[Ci fib]
+20.3 +14.1 68 +24 +24 комфорт 1028.4 1011.6 +26.2
19 14.09 С 1 10 км 4/0
[Ci fib]
+19.1 +13.5 70 +21 +21 комфорт 1028.7 1011.8
20 14.09 СВ 1 10 км 3/0
[Ci fib]
+18.0 +13.0 73 +19 +19 1028.8 1011.9
21 14.09 СВ 1 н/о н/о +17.0 +12.4 74 +18 +18 1029.3 1012.3
00 15.09 В 1 н/о н/о +15.8 +11.4 75 +17 +17 1029.0 1011.9
03 15.09 штиль 0 н/о н/о +13.3 +11.3 88 +13 +13 1028.2 1011.0
04 15.09 С 1 н/о н/о +12.3 +10.9 91 +12 +12 1028.3 1011.0
05 15.09 штиль 0 н/о н/о +12.2 +10.3 88 +12 +12 1028.5 1011.2
06 15.09 В 1 5000 м дымка ясно +13.9 +11.1 83 +14 +15 1028.7 1011.5 +12.2
07 15.09 ЮВ 1 10 км ясно +17.0 +11.5 70 +18 +22 1028.5 1011.5
08 15.09 ЮВ 1 10 км ясно +19.6 +11.7 60 +22 +29 комфорт 1028.2 1011.4
09 15.09 ЮЗ 1 10 км 1/0
[Ci fib]
+21.3 +12.4 57 +24 +34 комфорт 1027.7 1011.0
10 15.09 Ю 1 10 км 1/0
[Ci fib]
+22.9 +12.8 53 +26 +38 жарко 1027.0 1010.4
11 15.09 ЮЗ 2 10 км 1/0
[Ci fib]
+23.8 +13.3 52 +26 +37 жарко 1026.6 1010.0
12 15.09 З 1 10 км 1/1 1000 м
[Cu hum]
+24.8 +13.8 50 +27 +38 жарко 1025.4 1008.9
13 15.09 З 1 10 км 1/1 1000 м
[Cu hum]
+25.7 +13.8 48 +28 +37 жарко 1024.3 1007.9
14 15.09 Ю 2 н/о н/о +26.3 +12.8 43 +28 +28 жарко 1023.5 1007.1
15 15.09 СЗ 1 н/о н/о +26.5 +14.7 48 +29 +29 жарко 1023.0 1006.6
16 15.09 СЗ 1 н/о н/о +26.1 +14.0 47 +28 +28 жарко 1022.7 1006.3
17 15.09 штиль 0 н/о н/о +23.1 +14.5 58 +27 +27 душно 1022.4 1005.8
18 15.09 ЮВ 1 10 км ясно +20.7 +14.6 68 +25 +25 комфорт 1022.4 1005.7 +26.7
19 15.09 В 1 10 км ясно +18.6 +15.2 81 +21 +21 комфорт 1022.4 1005.6
20 15.09 В 1 10 км ясно +17.0 +14.7 86 +18 +18 1022.4 1005.5
21 15.09 ЮВ 1 н/о н/о +15.9 +14.0 88 +17 +17 1022.4 1005.4
00 16.09 штиль 0 н/о н/о +13.9 +12.4 91 +13 +13 1021.5 1004.4
03 16.09 штиль 0 н/о н/о +12.4 +11.2 92 +12 +12 1020.9 1003.7
04 16.09 штиль 0 н/о н/о +12.3 +11.3 94 +12 +12 1020.8 1003.6
05 16.09 В 1 н/о н/о +12.3 +11.3 94 +12 +12 1020.8 1003.6
06 16.09 Ю 1 5000 м дымка 1/0
[Ci fib]
+13.9 +12.5 91 +14 +15 1020.7 1003.7 +12.1
07 16.09 СЗ 1 10 км 1/0
[Ci fib]
+16.1 +13.8 86 +17 +21 1020.7 1003.8
08 16.09 ЮЗ 1 10 км 1/0
[Ci fib]
+19.3 +15.1 77 +22 +29 комфорт 1020.6 1003.9
09 16.09 З 1 10 км ясно +21.6 +15.8 70 +25 +35 комфорт 1020.6 1004.0
10 16.09 Ю 1 10 км ясно +24.2 +15.8 59 +27 +40 жарко 1019.9 1003.5
11 16.09 ЮЗ 2 10 км ясно +25.1 +15.8 56 +28 +39 жарко 1019.3 1002.9
12 16.09 ЮЗ 1 10 км ясно +26.7 +16.0 52 +30 +42 душно 1018.4 1002.1
13 16.09 В 2 10 км 1/0
[Ci fib]
+27.8 +14.4 44 +30 +38 жарко 1017.3 1001.1
14 16.09 В 2 н/о н/о +28.9 +14.0 40 +31 +31 жарко 1016.6 1000.4
15 16.09 ЮВ 1 н/о н/о +28.8 +13.1 38 +30 +30 жарко 1016.0 999.8
16 16.09 ЮЗ 1 н/о н/о +27.1 +15.2 48 +30 +30 душно 1015.6 999.3
17 16.09 штиль 0 н/о н/о +24.5 +17.6 65 +29 +29 душно 1015.7 999.3
18 16.09 В 1 10 км 3/0
[Ac trans]
+22.6 +17.3 72 +27 +27 душно 1015.5 999.1 +28.7
19 16.09 ЮВ 1 10 км 3/0
[Ac trans]
+20.7 +16.8 78 +25 +25 комфорт 1016.0 999.5
20 16.09 В 1 10 км 1/0
[Ac trans]
+19.1 +16.3 84 +22 +22 комфорт 1016.1 999.5
21 16.09 В 1 н/о н/о +18.1 +16.0 88 +19 +19 1016.3 999.5
00 17.09 штиль 0 н/о н/о +16.7 +15.1 90 +17 +17 1015.6 998.8
03 17.09 штиль 0 н/о н/о +16.1 +14.9 93 +16 +16 1015.4 998.5
04 17.09 Ю 1 н/о н/о +16.1 +14.9 93 +17 +17 1015.3 998.4
05 17.09 ЮВ 1 н/о н/о +15.9 +14.5 91 +17 +17 1015.5 998.6
06 17.09 ЮВ 1 5000 м дымка 9/1 1000 м
[Cu hum Ac As]
+16.2 +14.5 90 +17 +17 1015.4 998.6 +16.0
07 17.09 СЗ 1 10 км 9/1 1000 м
[Cu hum Ac As]
+17.2 +15.1 87 +18 +19 1016.1 999.4
08 17.09 Ю 1 10 км 9/1 1000 м
[Cu hum Ac As]
+19.0 +16.2 84 +22 +24 комфорт 1015.9 999.3
09 17.09 З 1 10 км 9/3 1000 м
[Cu hum Ac As]
+21.7 +17.9 79 +26 +29 душно 1015.9 999.4
10 17.09 Ю 1 10 км 8/5 1000 м
[Cu Sc Ac trans]
+23.3 +17.7 71 +29 +33 душно 1015.4 999.0
11 17.09 В 1 10 км 8/5 1000 м
[Cu Sc Ac trans]
+24.8 +17.4 63 +29 +33 душно 1014.9 998.6
12 17.09 Ю 1 10 км 8/8 1000 м
[Cu Sc]
+25.7 +17.8 62 +30 +32 душно 1014.1 997.9
13 17.09 С 1 10 км 8/5 1000 м
[Cu med, cong Ac trans]
+27.0 +18.3 59 +32 +35 очень
душно
1013.4 997.3
14 17.09 Ю 1 н/о н/о +28.5 +17.8 52 +33 +33 очень
душно
1012.7 996.6
15 17.09 СЗ 1 н/о н/о +28.1 +17.1 51 +32 +32 душно 1012.4 996.2
16 17.09 ЮЗ 1 н/о н/о +26.8 +16.2 52 +30 +30 душно 1012.2 996.0
17 17.09 ЮЗ 1 н/о н/о +25.3 +16.8 59 +29 +29 душно 1012.1 995.8
18 17.09 В 1 10 км 8/8 1000 м
[Sc]
+24.2 +17.6 67 +28 +28 душно 1012.3 996.0 +28.3
19 17.09 В 1 10 км 9/9 1000 м
[Sc]
+22.4 +18.3 78 +28 +28 душно 1012.9 996.5
20 17.09 СЗ 1 10 км 9/9 1000 м
[Sc]
+20.9 +17.8 82 +26 +26 душно 1013.3 996.8
21 17.09 СВ 2 н/о н/о +20.6 +16.7 78 +25 +25 комфорт 1014.1 997.5
00 18.09 СВ 2 н/о н/о +18.1 +16.3 89 +19 +19 1016.1 999.3
03 18.09 СВ 1 н/о н/о +16.7 +11.1 70 +18 +18 1018.0 1001.1
04 18.09 СВ 1 н/о н/о +16.5 +10.6 68 +17 +17 1018.9 1002.0
05 18.09 СВ 1 н/о н/о +16.1 +10.7 70 +17 +17 1019.8 1002.9
06 18.09 СВ 2 10 км 10/10 1000 м
[Sc]
+15.4 +8.3 63 +15 +15 1021.1 1004.1 +15.4 13
07 18.09 СВ 2 10 км 10/10 1000 м
[Sc]
+15.0 +7.6 61 +15 +15 1022.3 1005.3
08 18.09 В 2 10 км 10/10 1000 м
[Sc]
+14.5 +5.4 54 +14 +14 1023.4 1006.3
09 18.09 В 2 10 км 10/10 1000 м
[Sc]
+14.2 +4.5 52 +14 +14 1023.9 1006.8
10 18.09 В 2 10 км 10/10 1000 м
[Sc]
+14.3 +4.4 51 +14 +14 1024.3 1007.2
11 18.09 СВ 1 10 км 10/10 1000 м
[Sc]
+14.5 +4.4 51 +15 +15 1024.3 1007.2
12 18.09 штиль 0 10 км 10/10 1000 м
[Sc]
+14.8 +6.0 56 +15 +15 1023.7 1006.6
13 18.09 ЮВ 1 10 км 10/10 1000 м
[Sc]
+15.0 +3.8 47 +16 +16 1023.7 1006.6

 

Местоположение метеостанции Бьеловар (Хорватия): широта 45.73 долгота 16.85 высота над уровнем моря 142 м.

В архиве по умолчанию представлена погода в Бьеловаре за последнюю неделю. Архивные данные за месяц целиком и за предыдущие месяцы, начиная с января 2011 года, Вы можете получить, выбрав интересующий диапазон дат из раскрывающегося списка и нажав кнопку "Ввод!".


*Определитесь, кто Вы:
робот инопланетянин человек

Внимание! Время в таблицах - всемирное. Для получения местного времени необходимо прибавить поправку, которая равна 1 ч.

Смотрите также архив погоды в соседних городах и на ближайших метеорологических станциях:

Погода на Било-Горе (Хорватия) (32 км)
Погода в Даруваре (Хорватия) (33 км)
Погода в Крижевцах (Хорватия) (41 км)
Погода в Сисаке (Хорватия) (45 км)
Погода в Загреб аэропорту (Хорватия) (61 км)
Погода в Загребе (Хорватия) (64 км)
Погода в Загреб-Градеце (Хорватия) (68 км)
Погода в Пунтиярке (Хорватия) (71 км)
Погода в Вараздине (Хорватия) (73 км)
Погода в Надьканиже (Венгрия) (81 км)

Пояснения к столбцам:

Ветер - указаны скорость ветра в м/с - средняя за 10 мин, порывы в срок и между сроками (в фигурных скобках) и направление, откуда дует ветер: С - северный, СВ - северо-восточный, В - восточный, ЮВ - юго-восточный, Ю - южный, ЮЗ - юго-западный, З - западный, СЗ - северо-западный.
Видимость - горизонтальная дальность видимости в метрах или километрах. При видимости от 1 до 10 км при отсутствии осадков обычно наблюдается дымка, при ухудшении видимости до 1 км и менее - туман. В сухую погоду видимость может ухудшаться дымом, пылью или мглою.
Явления - указаны атмосферные явления, наблюдавшиеся в срок или в последний час перед сроком; фигурными скобками обозначены явления, наблюдавшиеся между сроками (за 1-3 часа до срока); квадратными скобками обозначены град или гололедные отложения с указанием их диаметра в мм.
Облачность - указаны через наклонную черту общая и нижняя облачность в баллах и высота нижней границы облаков в метрах; квадратными скобками обозначены формы облаков: Ci - перистые, Cs - перисто-слоистые, Cc - перисто-кучевые, Ac - высококучевые, As - высокослоистые, Sc - слоисто-кучевые, Ns - слоисто-дождевые, Cu - кучевые, Cb - кучево-дождевые. Подробнее классификацию облаков см. в Атласе облаков (PDF).
T - Температура воздуха - температура, измеренная на высоте 2 м над землей.
Td - Температура точки росы - температура, при понижении до которой содержащийся в воздухе водяной пар достигнет насыщения.
f - Относительная влажность воздуха - влажноcть воздуха, измеренная на высоте 2 м над землей.
Te - Эффективная температура - температура, которую ощущает одетый по сезону человек в тени. Характеристика душности погоды. При расчете учитывается влияние влажности воздуха и скорости ветра на теплоощущения человека.
Tes - Эффективная температура на солнце - температура, которую ощущает человек, с поправкой на солнечный нагрев. Характеристика знойности погоды. Зависит от высоты солнца над горизонтом, облачности и скорости ветра. Ночью, в пасмурную погоду, а также при ветре 12 м/с и более поправка равна нулю.
P - Атмосферное давление - приведенное к уровню моря атмосферное давление.
Po - Атмосферное давление - измеренное на уровне метеостанции атмосферное давление.
Tmin - Минимальная температура - минимум температуры воздуха на высоте 2 м над землей.
Tmax - Максимальная температура - максимум температуры воздуха на высоте 2 м над землей.
R - Количество осадков - Количество выпавших осадков за период времени, мм. При наведении курсора мыши на число - период времени, за который выпало указанное количество осадков.
R24 - Количество осадков - Количество выпавших осадков за 24 часа, мм.
S - Снежный покров - Высота снежного покрова, см. При наведении курсора мыши на число - состояние снежного покрова и степень покрытия местности в баллах.